Volver al catálogo

STARLINK-35193

ActivoComunicacionesVLEO
NORAD 65889·PAYLOAD·🇺🇸 United States

Lanzado Oct 7, 2025 desde Cape Canaveral Space Force Station

Loading…

Próximos Pases (próximas 24 horas)

TLE

ActualizadoSource: CelesTrak SupGP

Época: Sep 14, 2026, 22:34 UTC

1 65889C 25224H   26257.94076389  .00004352  00000+0  12851-3 0  2579
2 65889  53.1580 211.4856 0001411 101.7367 158.5623 15.34402704    10

Sigue STARLINK-35193 en tiempo real con AllMySat

Download on the App Store